#datetime,building,power
2023-07-16T00:00:00,sdl,4.01
2023-07-16T00:01:00,sdl,4.41
2023-07-16T00:02:00,sdl,4.23
2023-07-16T00:03:00,sdl,4.19
2023-07-16T00:04:00,sdl,4.35
2023-07-16T00:05:00,sdl,4.23
2023-07-16T00:06:00,sdl,4.03
2023-07-16T00:07:00,sdl,4.25
2023-07-16T00:08:00,sdl,4.45
2023-07-16T00:09:00,sdl,6.69
2023-07-16T00:10:00,sdl,6.71
2023-07-16T00:11:00,sdl,6.73
2023-07-16T00:12:00,sdl,6.38
2023-07-16T00:13:00,sdl,6.78
2023-07-16T00:14:00,sdl,6.64
2023-07-16T00:15:00,sdl,6.69
2023-07-16T00:16:00,sdl,6.65
2023-07-16T00:17:00,sdl,6.65
2023-07-16T00:18:00,sdl,6.48
2023-07-16T00:19:00,sdl,6.71
2023-07-16T00:20:00,sdl,6.69
2023-07-16T00:21:00,sdl,6.63
2023-07-16T00:22:00,sdl,6.54
2023-07-16T00:23:00,sdl,6.63
2023-07-16T00:24:00,sdl,6.63
2023-07-16T00:25:00,sdl,6.63
2023-07-16T00:26:00,sdl,4.71
2023-07-16T00:27:00,sdl,4.59
2023-07-16T00:28:00,sdl,4.55
2023-07-16T00:29:00,sdl,4.49
2023-07-16T00:30:00,sdl,4.47
2023-07-16T00:31:00,sdl,4.29
2023-07-16T00:32:00,sdl,4.73
2023-07-16T00:33:00,sdl,4.71
2023-07-16T00:34:00,sdl,4.39
2023-07-16T00:35:00,sdl,4.40
2023-07-16T00:36:00,sdl,4.35
2023-07-16T00:37:00,sdl,4.20
2023-07-16T00:38:00,sdl,4.34
2023-07-16T00:39:00,sdl,4.37
2023-07-16T00:40:00,sdl,4.95
2023-07-16T00:41:00,sdl,4.48
2023-07-16T00:42:00,sdl,4.37
2023-07-16T00:43:00,sdl,4.35
2023-07-16T00:44:00,sdl,4.41
2023-07-16T00:45:00,sdl,4.44
2023-07-16T00:46:00,sdl,4.11
2023-07-16T00:47:00,sdl,4.15
2023-07-16T00:48:00,sdl,4.11
2023-07-16T00:49:00,sdl,4.26
2023-07-16T00:50:00,sdl,4.16
2023-07-16T00:51:00,sdl,4.50
2023-07-16T00:52:00,sdl,4.36
2023-07-16T00:53:00,sdl,4.34
2023-07-16T00:54:00,sdl,4.30
2023-07-16T00:55:00,sdl,6.55
2023-07-16T00:56:00,sdl,6.50
2023-07-16T00:57:00,sdl,6.65
2023-07-16T00:58:00,sdl,6.67
2023-07-16T00:59:00,sdl,6.68
2023-07-16T01:00:00,sdl,6.63
2023-07-16T01:01:00,sdl,6.65
2023-07-16T01:02:00,sdl,6.40
2023-07-16T01:03:00,sdl,6.99
2023-07-16T01:04:00,sdl,6.97
2023-07-16T01:05:00,sdl,6.54
2023-07-16T01:06:00,sdl,6.47
2023-07-16T01:07:00,sdl,6.48
2023-07-16T01:08:00,sdl,6.38
2023-07-16T01:09:00,sdl,6.47
2023-07-16T01:10:00,sdl,4.28
2023-07-16T01:11:00,sdl,4.30
2023-07-16T01:12:00,sdl,4.35
2023-07-16T01:13:00,sdl,4.38
2023-07-16T01:14:00,sdl,4.22
2023-07-16T01:15:00,sdl,4.15
2023-07-16T01:16:00,sdl,4.48
2023-07-16T01:17:00,sdl,4.51
2023-07-16T01:18:00,sdl,4.56
2023-07-16T01:19:00,sdl,4.44
2023-07-16T01:20:00,sdl,4.41
2023-07-16T01:21:00,sdl,4.48
2023-07-16T01:22:00,sdl,4.56
2023-07-16T01:23:00,sdl,4.49
2023-07-16T01:24:00,sdl,4.53
2023-07-16T01:25:00,sdl,6.78
2023-07-16T01:26:00,sdl,6.68
2023-07-16T01:27:00,sdl,6.68
2023-07-16T01:28:00,sdl,7.10
2023-07-16T01:29:00,sdl,6.94
2023-07-16T01:30:00,sdl,6.97
2023-07-16T01:31:00,sdl,6.90
2023-07-16T01:32:00,sdl,6.90
2023-07-16T01:33:00,sdl,6.88
2023-07-16T01:34:00,sdl,6.90
2023-07-16T01:35:00,sdl,7.20
2023-07-16T01:36:00,sdl,4.98
2023-07-16T01:37:00,sdl,5.00
2023-07-16T01:38:00,sdl,4.60
2023-07-16T01:39:00,sdl,4.44
2023-07-16T01:40:00,sdl,4.74
2023-07-16T01:41:00,sdl,4.53
2023-07-16T01:42:00,sdl,4.44
2023-07-16T01:43:00,sdl,4.48
2023-07-16T01:44:00,sdl,4.48
2023-07-16T01:45:00,sdl,4.47
2023-07-16T01:46:00,sdl,4.50
2023-07-16T01:47:00,sdl,4.60
2023-07-16T01:48:00,sdl,4.54
2023-07-16T01:49:00,sdl,4.60
2023-07-16T01:50:00,sdl,4.63
2023-07-16T01:51:00,sdl,4.56
2023-07-16T01:52:00,sdl,4.69
2023-07-16T01:53:00,sdl,4.85
2023-07-16T01:54:00,sdl,4.58
2023-07-16T01:55:00,sdl,4.55
2023-07-16T01:56:00,sdl,4.58
2023-07-16T01:57:00,sdl,4.58
2023-07-16T01:58:00,sdl,4.30
2023-07-16T01:59:00,sdl,6.77
2023-07-16T02:00:00,sdl,6.92
2023-07-16T02:01:00,sdl,6.79
2023-07-16T02:02:00,sdl,6.79
2023-07-16T02:03:00,sdl,6.80
2023-07-16T02:04:00,sdl,6.70
2023-07-16T02:05:00,sdl,6.95
2023-07-16T02:06:00,sdl,6.81
2023-07-16T02:07:00,sdl,7.19
2023-07-16T02:08:00,sdl,7.06
2023-07-16T02:09:00,sdl,7.12
2023-07-16T02:10:00,sdl,6.52
2023-07-16T02:11:00,sdl,6.50
2023-07-16T02:12:00,sdl,6.69
2023-07-16T02:13:00,sdl,6.78
2023-07-16T02:14:00,sdl,6.73
2023-07-16T02:15:00,sdl,4.49
2023-07-16T02:16:00,sdl,4.53
2023-07-16T02:17:00,sdl,4.19
2023-07-16T02:18:00,sdl,4.66
2023-07-16T02:19:00,sdl,4.50
2023-07-16T02:20:00,sdl,4.44
2023-07-16T02:21:00,sdl,4.60
2023-07-16T02:22:00,sdl,4.47
2023-07-16T02:23:00,sdl,4.26
2023-07-16T02:24:00,sdl,4.44
2023-07-16T02:25:00,sdl,4.20
2023-07-16T02:26:00,sdl,4.10
2023-07-16T02:27:00,sdl,4.27
2023-07-16T02:28:00,sdl,4.12
2023-07-16T02:29:00,sdl,3.94
2023-07-16T02:30:00,sdl,4.43
2023-07-16T02:31:00,sdl,4.24
2023-07-16T02:32:00,sdl,4.37
2023-07-16T02:33:00,sdl,4.27
2023-07-16T02:34:00,sdl,4.37
2023-07-16T02:35:00,sdl,4.23
2023-07-16T02:36:00,sdl,4.30
2023-07-16T02:37:00,sdl,4.34
2023-07-16T02:38:00,sdl,6.58
2023-07-16T02:39:00,sdl,6.96
2023-07-16T02:40:00,sdl,6.88
2023-07-16T02:41:00,sdl,6.38
2023-07-16T02:42:00,sdl,6.53
2023-07-16T02:43:00,sdl,6.55
2023-07-16T02:44:00,sdl,6.49
2023-07-16T02:45:00,sdl,6.50
2023-07-16T02:46:00,sdl,6.51
2023-07-16T02:47:00,sdl,6.52
2023-07-16T02:48:00,sdl,4.08
2023-07-16T02:49:00,sdl,4.28
2023-07-16T02:50:00,sdl,4.36
2023-07-16T02:51:00,sdl,4.30
2023-07-16T02:52:00,sdl,4.37
2023-07-16T02:53:00,sdl,4.21
2023-07-16T02:54:00,sdl,4.13
2023-07-16T02:55:00,sdl,4.36
2023-07-16T02:56:00,sdl,4.08
2023-07-16T02:57:00,sdl,4.11
2023-07-16T02:58:00,sdl,4.12
2023-07-16T02:59:00,sdl,4.23
2023-07-16T03:00:00,sdl,4.03
2023-07-16T03:01:00,sdl,4.06
2023-07-16T03:02:00,sdl,4.14
2023-07-16T03:03:00,sdl,4.17
2023-07-16T03:04:00,sdl,6.36
2023-07-16T03:05:00,sdl,6.22
2023-07-16T03:06:00,sdl,6.16
2023-07-16T03:07:00,sdl,6.35
2023-07-16T03:08:00,sdl,6.36
2023-07-16T03:09:00,sdl,6.74
2023-07-16T03:10:00,sdl,7.95
2023-07-16T03:11:00,sdl,6.52
2023-07-16T03:12:00,sdl,6.47
2023-07-16T03:13:00,sdl,6.56
2023-07-16T03:14:00,sdl,5.59
2023-07-16T03:15:00,sdl,6.55
2023-07-16T03:16:00,sdl,6.49
2023-07-16T03:17:00,sdl,6.48
2023-07-16T03:18:00,sdl,7.09
2023-07-16T03:19:00,sdl,6.45
2023-07-16T03:20:00,sdl,4.66
2023-07-16T03:21:00,sdl,4.33
2023-07-16T03:22:00,sdl,4.44
2023-07-16T03:23:00,sdl,4.41
2023-07-16T03:24:00,sdl,4.32
2023-07-16T03:25:00,sdl,4.13
2023-07-16T03:26:00,sdl,4.29
2023-07-16T03:27:00,sdl,4.42
2023-07-16T03:28:00,sdl,4.20
2023-07-16T03:29:00,sdl,3.52
2023-07-16T03:30:00,sdl,4.30
2023-07-16T03:31:00,sdl,4.25
2023-07-16T03:32:00,sdl,4.20
2023-07-16T03:33:00,sdl,4.31
2023-07-16T03:34:00,sdl,4.78
2023-07-16T03:35:00,sdl,4.40
2023-07-16T03:36:00,sdl,4.66
2023-07-16T03:37:00,sdl,4.77
2023-07-16T03:38:00,sdl,4.70
2023-07-16T03:39:00,sdl,4.87
2023-07-16T03:40:00,sdl,4.91
2023-07-16T03:41:00,sdl,5.29
2023-07-16T03:42:00,sdl,5.24
2023-07-16T03:43:00,sdl,4.81
2023-07-16T03:44:00,sdl,4.87
2023-07-16T03:45:00,sdl,4.82
2023-07-16T03:46:00,sdl,4.46
2023-07-16T03:47:00,sdl,4.39
2023-07-16T03:48:00,sdl,4.36
2023-07-16T03:49:00,sdl,4.39
2023-07-16T03:50:00,sdl,6.40
2023-07-16T03:51:00,sdl,7.27
2023-07-16T03:52:00,sdl,6.67
2023-07-16T03:53:00,sdl,6.49
2023-07-16T03:54:00,sdl,7.27
2023-07-16T03:55:00,sdl,6.52
2023-07-16T03:56:00,sdl,6.42
2023-07-16T03:57:00,sdl,7.30
2023-07-16T03:58:00,sdl,7.30
2023-07-16T03:59:00,sdl,7.36
2023-07-16T04:00:00,sdl,7.25
2023-07-16T04:01:00,sdl,7.27
2023-07-16T04:02:00,sdl,7.44
2023-07-16T04:03:00,sdl,7.14
2023-07-16T04:04:00,sdl,6.43
2023-07-16T04:05:00,sdl,4.24
2023-07-16T04:06:00,sdl,4.25
2023-07-16T04:07:00,sdl,4.15
2023-07-16T04:08:00,sdl,4.18
2023-07-16T04:09:00,sdl,4.28
2023-07-16T04:10:00,sdl,4.20
2023-07-16T04:11:00,sdl,4.17
2023-07-16T04:12:00,sdl,4.23
2023-07-16T04:13:00,sdl,4.19
2023-07-16T04:14:00,sdl,4.63
2023-07-16T04:15:00,sdl,4.49
2023-07-16T04:16:00,sdl,4.19
2023-07-16T04:17:00,sdl,4.14
2023-07-16T04:18:00,sdl,4.17
2023-07-16T04:19:00,sdl,6.44
2023-07-16T04:20:00,sdl,6.47
2023-07-16T04:21:00,sdl,6.31
2023-07-16T04:22:00,sdl,6.68
2023-07-16T04:23:00,sdl,6.36
2023-07-16T04:24:00,sdl,6.56
2023-07-16T04:25:00,sdl,6.55
2023-07-16T04:26:00,sdl,6.54
2023-07-16T04:27:00,sdl,6.34
2023-07-16T04:28:00,sdl,6.34
2023-07-16T04:29:00,sdl,6.49
2023-07-16T04:30:00,sdl,6.53
2023-07-16T04:31:00,sdl,4.33
2023-07-16T04:32:00,sdl,4.29
2023-07-16T04:33:00,sdl,4.23
2023-07-16T04:34:00,sdl,4.24
2023-07-16T04:35:00,sdl,4.22
2023-07-16T04:36:00,sdl,4.17
2023-07-16T04:37:00,sdl,4.23
2023-07-16T04:38:00,sdl,4.39
2023-07-16T04:39:00,sdl,4.30
2023-07-16T04:40:00,sdl,4.10
2023-07-16T04:41:00,sdl,4.26
2023-07-16T04:42:00,sdl,4.24
2023-07-16T04:43:00,sdl,4.25
2023-07-16T04:44:00,sdl,4.72
2023-07-16T04:45:00,sdl,4.69
2023-07-16T04:46:00,sdl,4.66
2023-07-16T04:47:00,sdl,4.48
2023-07-16T04:48:00,sdl,4.20
2023-07-16T04:49:00,sdl,4.27
2023-07-16T04:50:00,sdl,4.32
2023-07-16T04:51:00,sdl,4.29
2023-07-16T04:52:00,sdl,4.16
2023-07-16T04:53:00,sdl,4.14
2023-07-16T04:54:00,sdl,4.29
2023-07-16T04:55:00,sdl,4.30
2023-07-16T04:56:00,sdl,6.50
2023-07-16T04:57:00,sdl,6.59
2023-07-16T04:58:00,sdl,6.63
2023-07-16T04:59:00,sdl,6.59
2023-07-16T05:00:00,sdl,6.61
2023-07-16T05:01:00,sdl,6.54
2023-07-16T05:02:00,sdl,6.61
2023-07-16T05:03:00,sdl,6.53
2023-07-16T05:04:00,sdl,6.57
2023-07-16T05:05:00,sdl,6.37
2023-07-16T05:06:00,sdl,6.37
2023-07-16T05:07:00,sdl,6.53
2023-07-16T05:08:00,sdl,6.40
2023-07-16T05:09:00,sdl,6.40
2023-07-16T05:10:00,sdl,6.42
2023-07-16T05:11:00,sdl,6.37
2023-07-16T05:12:00,sdl,4.29
2023-07-16T05:13:00,sdl,4.25
2023-07-16T05:14:00,sdl,4.63
2023-07-16T05:15:00,sdl,4.61
2023-07-16T05:16:00,sdl,4.14
2023-07-16T05:17:00,sdl,3.98
2023-07-16T05:18:00,sdl,3.94
2023-07-16T05:19:00,sdl,4.03
2023-07-16T05:20:00,sdl,4.07
2023-07-16T05:21:00,sdl,4.01
2023-07-16T05:22:00,sdl,4.05
2023-07-16T05:23:00,sdl,4.06
2023-07-16T05:24:00,sdl,4.25
2023-07-16T05:25:00,sdl,4.01
2023-07-16T05:26:00,sdl,4.13
2023-07-16T05:27:00,sdl,3.98
2023-07-16T05:28:00,sdl,4.11
2023-07-16T05:29:00,sdl,4.14
2023-07-16T05:30:00,sdl,4.05
2023-07-16T05:31:00,sdl,4.20
2023-07-16T05:32:00,sdl,4.25
2023-07-16T05:33:00,sdl,4.23
2023-07-16T05:34:00,sdl,4.21
2023-07-16T05:35:00,sdl,4.20
2023-07-16T05:36:00,sdl,4.23
2023-07-16T05:37:00,sdl,4.16
2023-07-16T05:38:00,sdl,4.02
2023-07-16T05:39:00,sdl,3.98
2023-07-16T05:40:00,sdl,3.99
2023-07-16T05:41:00,sdl,4.00
2023-07-16T05:42:00,sdl,4.08
2023-07-16T05:43:00,sdl,6.27
2023-07-16T05:44:00,sdl,6.70
2023-07-16T05:45:00,sdl,6.76
2023-07-16T05:46:00,sdl,6.34
2023-07-16T05:47:00,sdl,6.47
2023-07-16T05:48:00,sdl,6.46
2023-07-16T05:49:00,sdl,6.33
2023-07-16T05:50:00,sdl,6.37
2023-07-16T05:51:00,sdl,6.34
2023-07-16T05:52:00,sdl,6.26
2023-07-16T05:53:00,sdl,6.29
2023-07-16T05:54:00,sdl,6.28
2023-07-16T05:55:00,sdl,6.12
2023-07-16T05:56:00,sdl,4.00
2023-07-16T05:57:00,sdl,4.09
2023-07-16T05:58:00,sdl,4.13
2023-07-16T05:59:00,sdl,4.10
2023-07-16T06:00:00,sdl,4.09
2023-07-16T06:01:00,sdl,4.20
2023-07-16T06:02:00,sdl,4.70
2023-07-16T06:03:00,sdl,4.29
2023-07-16T06:04:00,sdl,4.43
2023-07-16T06:05:00,sdl,4.42
2023-07-16T06:06:00,sdl,4.40
2023-07-16T06:07:00,sdl,4.21
2023-07-16T06:08:00,sdl,4.41
2023-07-16T06:09:00,sdl,4.35
2023-07-16T06:10:00,sdl,4.30
2023-07-16T06:11:00,sdl,6.60
2023-07-16T06:12:00,sdl,6.66
2023-07-16T06:13:00,sdl,6.72
2023-07-16T06:14:00,sdl,6.41
2023-07-16T06:15:00,sdl,6.53
2023-07-16T06:16:00,sdl,6.96
2023-07-16T06:17:00,sdl,7.03
2023-07-16T06:18:00,sdl,7.07
2023-07-16T06:19:00,sdl,6.72
2023-07-16T06:20:00,sdl,6.51
2023-07-16T06:21:00,sdl,6.73
2023-07-16T06:22:00,sdl,6.65
2023-07-16T06:23:00,sdl,6.76
2023-07-16T06:24:00,sdl,6.77
2023-07-16T06:25:00,sdl,4.49
2023-07-16T06:26:00,sdl,4.50
2023-07-16T06:27:00,sdl,4.36
2023-07-16T06:28:00,sdl,4.34
2023-07-16T06:29:00,sdl,4.34
2023-07-16T06:30:00,sdl,4.25
2023-07-16T06:31:00,sdl,4.22
2023-07-16T06:32:00,sdl,4.08
2023-07-16T06:33:00,sdl,4.23
2023-07-16T06:34:00,sdl,4.39
2023-07-16T06:35:00,sdl,4.35
2023-07-16T06:36:00,sdl,4.31
2023-07-16T06:37:00,sdl,4.64
2023-07-16T06:38:00,sdl,4.48
2023-07-16T06:39:00,sdl,4.29
2023-07-16T06:40:00,sdl,4.35
2023-07-16T06:41:00,sdl,4.29
2023-07-16T06:42:00,sdl,4.20
2023-07-16T06:43:00,sdl,4.24
2023-07-16T06:44:00,sdl,4.08
2023-07-16T06:45:00,sdl,3.98
2023-07-16T06:46:00,sdl,4.34
2023-07-16T06:47:00,sdl,4.33
2023-07-16T06:48:00,sdl,4.27
2023-07-16T06:49:00,sdl,4.72
2023-07-16T06:50:00,sdl,5.03
2023-07-16T06:51:00,sdl,6.59
2023-07-16T06:52:00,sdl,6.64
2023-07-16T06:53:00,sdl,6.89
2023-07-16T06:54:00,sdl,6.60
2023-07-16T06:55:00,sdl,6.66
2023-07-16T06:56:00,sdl,6.60
2023-07-16T06:57:00,sdl,6.39
2023-07-16T06:58:00,sdl,6.37
2023-07-16T06:59:00,sdl,6.54
2023-07-16T07:00:00,sdl,6.55
2023-07-16T07:01:00,sdl,6.52
2023-07-16T07:02:00,sdl,6.55
2023-07-16T07:03:00,sdl,6.53
2023-07-16T07:04:00,sdl,6.29
2023-07-16T07:05:00,sdl,6.34
2023-07-16T07:06:00,sdl,6.23
2023-07-16T07:07:00,sdl,6.43
2023-07-16T07:08:00,sdl,6.43
2023-07-16T07:09:00,sdl,4.14
2023-07-16T07:10:00,sdl,3.91
2023-07-16T07:11:00,sdl,4.28
2023-07-16T07:12:00,sdl,4.25
2023-07-16T07:13:00,sdl,4.31
2023-07-16T07:14:00,sdl,4.28
2023-07-16T07:15:00,sdl,4.49
2023-07-16T07:16:00,sdl,4.42
2023-07-16T07:17:00,sdl,4.29
2023-07-16T07:18:00,sdl,4.23
2023-07-16T07:19:00,sdl,4.53
2023-07-16T07:20:00,sdl,4.53
2023-07-16T07:21:00,sdl,4.23
2023-07-16T07:22:00,sdl,3.94
2023-07-16T07:23:00,sdl,3.83
2023-07-16T07:24:00,sdl,3.70
2023-07-16T07:25:00,sdl,3.67
2023-07-16T07:26:00,sdl,3.59
2023-07-16T07:27:00,sdl,3.58
2023-07-16T07:28:00,sdl,3.73
2023-07-16T07:29:00,sdl,1.99
2023-07-16T07:30:00,sdl,1.98
2023-07-16T07:31:00,sdl,1.86
2023-07-16T07:32:00,sdl,4.10
2023-07-16T07:33:00,sdl,5.26
2023-07-16T07:34:00,sdl,5.28
2023-07-16T07:35:00,sdl,5.21
2023-07-16T07:36:00,sdl,5.32
2023-07-16T07:37:00,sdl,5.25
2023-07-16T07:38:00,sdl,5.25
2023-07-16T07:39:00,sdl,5.26
2023-07-16T07:40:00,sdl,5.48
2023-07-16T07:41:00,sdl,3.11
2023-07-16T07:42:00,sdl,3.06
2023-07-16T07:43:00,sdl,3.09
2023-07-16T07:44:00,sdl,3.11
2023-07-16T07:45:00,sdl,3.15
2023-07-16T07:46:00,sdl,3.15
2023-07-16T07:47:00,sdl,3.09
2023-07-16T07:48:00,sdl,3.41
2023-07-16T07:49:00,sdl,3.68
2023-07-16T07:50:00,sdl,3.28
2023-07-16T07:51:00,sdl,3.33
2023-07-16T07:52:00,sdl,3.52
2023-07-16T07:53:00,sdl,3.29
2023-07-16T07:54:00,sdl,3.33
2023-07-16T07:55:00,sdl,3.34
2023-07-16T07:56:00,sdl,5.55
2023-07-16T07:57:00,sdl,5.57
2023-07-16T07:58:00,sdl,5.50
2023-07-16T07:59:00,sdl,5.84
2023-07-16T08:00:00,sdl,5.50
2023-07-16T08:01:00,sdl,5.55
2023-07-16T08:02:00,sdl,5.47
2023-07-16T08:03:00,sdl,5.63
2023-07-16T08:04:00,sdl,5.86
2023-07-16T08:05:00,sdl,5.52
2023-07-16T08:06:00,sdl,5.54
2023-07-16T08:07:00,sdl,5.48
2023-07-16T08:08:00,sdl,5.53
2023-07-16T08:09:00,sdl,5.51
2023-07-16T08:10:00,sdl,5.52
2023-07-16T08:11:00,sdl,5.67
2023-07-16T08:12:00,sdl,5.70
2023-07-16T08:13:00,sdl,5.64
2023-07-16T08:14:00,sdl,3.41
2023-07-16T08:15:00,sdl,3.36
2023-07-16T08:16:00,sdl,3.34
2023-07-16T08:17:00,sdl,3.45
2023-07-16T08:18:00,sdl,3.32
2023-07-16T08:19:00,sdl,3.66
2023-07-16T08:20:00,sdl,3.63
2023-07-16T08:21:00,sdl,3.31
2023-07-16T08:22:00,sdl,3.23
2023-07-16T08:23:00,sdl,3.29
2023-07-16T08:24:00,sdl,3.33
2023-07-16T08:25:00,sdl,3.47
2023-07-16T08:26:00,sdl,3.50
2023-07-16T08:27:00,sdl,3.69
2023-07-16T08:28:00,sdl,3.78
2023-07-16T08:29:00,sdl,3.90
2023-07-16T08:30:00,sdl,3.82
2023-07-16T08:31:00,sdl,4.25
2023-07-16T08:32:00,sdl,4.19
2023-07-16T08:33:00,sdl,4.28
2023-07-16T08:34:00,sdl,4.32
2023-07-16T08:35:00,sdl,4.23
2023-07-16T08:36:00,sdl,4.13
2023-07-16T08:37:00,sdl,4.24
2023-07-16T08:38:00,sdl,4.24
2023-07-16T08:39:00,sdl,4.27
2023-07-16T08:40:00,sdl,4.31
2023-07-16T08:41:00,sdl,4.25
2023-07-16T08:42:00,sdl,4.31
2023-07-16T08:43:00,sdl,4.59
2023-07-16T08:44:00,sdl,4.39
2023-07-16T08:45:00,sdl,4.29
2023-07-16T08:46:00,sdl,4.28
2023-07-16T08:47:00,sdl,6.46
2023-07-16T08:48:00,sdl,6.46
2023-07-16T08:49:00,sdl,6.59
2023-07-16T08:50:00,sdl,6.80
2023-07-16T08:51:00,sdl,6.78
2023-07-16T08:52:00,sdl,8.30
2023-07-16T08:53:00,sdl,11.19
2023-07-16T08:54:00,sdl,11.46
2023-07-16T08:55:00,sdl,11.25
2023-07-16T08:56:00,sdl,11.79
2023-07-16T08:57:00,sdl,11.94
2023-07-16T08:58:00,sdl,12.02
2023-07-16T08:59:00,sdl,12.19
2023-07-16T09:00:00,sdl,12.46
2023-07-16T09:01:00,sdl,14.84
2023-07-16T09:02:00,sdl,12.60
2023-07-16T09:03:00,sdl,12.57
2023-07-16T09:04:00,sdl,12.69
2023-07-16T09:05:00,sdl,12.72
2023-07-16T09:06:00,sdl,11.80
2023-07-16T09:07:00,sdl,12.74
2023-07-16T09:08:00,sdl,14.23
2023-07-16T09:09:00,sdl,14.52
2023-07-16T09:10:00,sdl,14.64
2023-07-16T09:11:00,sdl,14.87
2023-07-16T09:12:00,sdl,15.16
2023-07-16T09:13:00,sdl,15.17
2023-07-16T09:14:00,sdl,15.39
2023-07-16T09:15:00,sdl,16.00
2023-07-16T09:16:00,sdl,15.57
2023-07-16T09:17:00,sdl,15.80
2023-07-16T09:18:00,sdl,15.83
2023-07-16T09:19:00,sdl,18.20
2023-07-16T09:20:00,sdl,18.11
2023-07-16T09:21:00,sdl,18.21
2023-07-16T09:22:00,sdl,18.19
2023-07-16T09:23:00,sdl,18.07
2023-07-16T09:24:00,sdl,18.06
2023-07-16T09:25:00,sdl,18.42
2023-07-16T09:26:00,sdl,17.79
2023-07-16T09:27:00,sdl,17.70
2023-07-16T09:28:00,sdl,17.75
2023-07-16T09:29:00,sdl,15.63
2023-07-16T09:30:00,sdl,15.67
2023-07-16T09:31:00,sdl,15.87
2023-07-16T09:32:00,sdl,15.88
2023-07-16T09:33:00,sdl,15.72
2023-07-16T09:34:00,sdl,15.71
2023-07-16T09:35:00,sdl,15.72
2023-07-16T09:36:00,sdl,15.80
2023-07-16T09:37:00,sdl,15.83
2023-07-16T09:38:00,sdl,15.85
2023-07-16T09:39:00,sdl,15.85
2023-07-16T09:40:00,sdl,15.81
2023-07-16T09:41:00,sdl,15.65
2023-07-16T09:42:00,sdl,15.67
2023-07-16T09:43:00,sdl,15.80
2023-07-16T09:44:00,sdl,15.58
2023-07-16T09:45:00,sdl,15.69
2023-07-16T09:46:00,sdl,15.63
2023-07-16T09:47:00,sdl,15.74
2023-07-16T09:48:00,sdl,15.75
2023-07-16T09:49:00,sdl,15.85
2023-07-16T09:50:00,sdl,18.02
2023-07-16T09:51:00,sdl,17.96
2023-07-16T09:52:00,sdl,18.12
2023-07-16T09:53:00,sdl,17.94
2023-07-16T09:54:00,sdl,18.23
2023-07-16T09:55:00,sdl,18.14
2023-07-16T09:56:00,sdl,17.96
2023-07-16T09:57:00,sdl,18.65
2023-07-16T09:58:00,sdl,18.69
2023-07-16T09:59:00,sdl,18.74
2023-07-16T10:00:00,sdl,18.61
2023-07-16T10:01:00,sdl,18.75
2023-07-16T10:02:00,sdl,18.77
2023-07-16T10:03:00,sdl,18.76
2023-07-16T10:04:00,sdl,18.76
2023-07-16T10:05:00,sdl,18.71
2023-07-16T10:06:00,sdl,17.93
2023-07-16T10:07:00,sdl,17.87
2023-07-16T10:08:00,sdl,15.92
2023-07-16T10:09:00,sdl,15.71
2023-07-16T10:10:00,sdl,15.73
2023-07-16T10:11:00,sdl,15.77
2023-07-16T10:12:00,sdl,15.60
2023-07-16T10:13:00,sdl,15.94
2023-07-16T10:14:00,sdl,15.77
2023-07-16T10:15:00,sdl,15.72
2023-07-16T10:16:00,sdl,15.75
2023-07-16T10:17:00,sdl,15.17
2023-07-16T10:18:00,sdl,15.54
2023-07-16T10:19:00,sdl,15.50
2023-07-16T10:20:00,sdl,15.72
2023-07-16T10:21:00,sdl,15.80
2023-07-16T10:22:00,sdl,15.61
2023-07-16T10:23:00,sdl,15.58
2023-07-16T10:24:00,sdl,15.66
2023-07-16T10:25:00,sdl,16.02
2023-07-16T10:26:00,sdl,15.80
2023-07-16T10:27:00,sdl,15.92
2023-07-16T10:28:00,sdl,15.41
2023-07-16T10:29:00,sdl,15.55
2023-07-16T10:30:00,sdl,15.37
2023-07-16T10:31:00,sdl,15.36
2023-07-16T10:32:00,sdl,15.32
2023-07-16T10:33:00,sdl,15.54
2023-07-16T10:34:00,sdl,15.52
2023-07-16T10:35:00,sdl,15.41
2023-07-16T10:36:00,sdl,15.40
2023-07-16T10:37:00,sdl,15.53
2023-07-16T10:38:00,sdl,17.61
2023-07-16T10:39:00,sdl,17.62
2023-07-16T10:40:00,sdl,17.64
2023-07-16T10:41:00,sdl,17.64
2023-07-16T10:42:00,sdl,17.56
2023-07-16T10:43:00,sdl,17.57
2023-07-16T10:44:00,sdl,17.49
2023-07-16T10:45:00,sdl,17.48
2023-07-16T10:46:00,sdl,17.64
2023-07-16T10:47:00,sdl,17.32
2023-07-16T10:48:00,sdl,12.25
2023-07-16T10:49:00,sdl,12.29
2023-07-16T10:50:00,sdl,12.33
2023-07-16T10:51:00,sdl,12.29
2023-07-16T10:52:00,sdl,12.11
2023-07-16T10:53:00,sdl,10.12
2023-07-16T10:54:00,sdl,10.43
2023-07-16T10:55:00,sdl,10.41
2023-07-16T10:56:00,sdl,10.01
2023-07-16T10:57:00,sdl,10.02
2023-07-16T10:58:00,sdl,10.08
2023-07-16T10:59:00,sdl,10.13
2023-07-16T11:00:00,sdl,9.93
2023-07-16T11:01:00,sdl,10.11
2023-07-16T11:02:00,sdl,14.89
2023-07-16T11:03:00,sdl,14.64
2023-07-16T11:04:00,sdl,15.13
2023-07-16T11:05:00,sdl,15.30
2023-07-16T11:06:00,sdl,15.43
2023-07-16T11:07:00,sdl,17.54
2023-07-16T11:08:00,sdl,17.57
2023-07-16T11:09:00,sdl,17.71
2023-07-16T11:10:00,sdl,17.93
2023-07-16T11:11:00,sdl,18.28
2023-07-16T11:12:00,sdl,18.14
2023-07-16T11:13:00,sdl,17.87
2023-07-16T11:14:00,sdl,17.74
2023-07-16T11:15:00,sdl,17.96
2023-07-16T11:16:00,sdl,17.73
2023-07-16T11:17:00,sdl,17.62
2023-07-16T11:18:00,sdl,17.68
2023-07-16T11:19:00,sdl,17.82
2023-07-16T11:20:00,sdl,17.69
2023-07-16T11:21:00,sdl,15.79
2023-07-16T11:22:00,sdl,15.73
2023-07-16T11:23:00,sdl,15.57
2023-07-16T11:24:00,sdl,15.48
2023-07-16T11:25:00,sdl,15.92
2023-07-16T11:26:00,sdl,15.83
2023-07-16T11:27:00,sdl,15.38
2023-07-16T11:28:00,sdl,15.76
2023-07-16T11:29:00,sdl,15.84
2023-07-16T11:30:00,sdl,15.57
2023-07-16T11:31:00,sdl,15.76
2023-07-16T11:32:00,sdl,15.38
2023-07-16T11:33:00,sdl,15.47
2023-07-16T11:34:00,sdl,15.48
2023-07-16T11:35:00,sdl,15.34
2023-07-16T11:36:00,sdl,15.76
2023-07-16T11:37:00,sdl,15.55
2023-07-16T11:38:00,sdl,15.53
2023-07-16T11:39:00,sdl,15.55
2023-07-16T11:40:00,sdl,15.46
2023-07-16T11:41:00,sdl,15.66
2023-07-16T11:42:00,sdl,15.67
2023-07-16T11:43:00,sdl,15.67
2023-07-16T11:44:00,sdl,17.79
2023-07-16T11:45:00,sdl,17.83
2023-07-16T11:46:00,sdl,17.89
2023-07-16T11:47:00,sdl,17.93
2023-07-16T11:48:00,sdl,17.91
2023-07-16T11:49:00,sdl,17.83
2023-07-16T11:50:00,sdl,17.62
2023-07-16T11:51:00,sdl,12.40
2023-07-16T11:52:00,sdl,12.38
2023-07-16T11:53:00,sdl,12.47
2023-07-16T11:54:00,sdl,12.03
2023-07-16T11:55:00,sdl,12.65
2023-07-16T11:56:00,sdl,12.30
2023-07-16T11:57:00,sdl,12.23
2023-07-16T11:58:00,sdl,12.33
2023-07-16T11:59:00,sdl,12.29
2023-07-16T12:00:00,sdl,12.49
2023-07-16T12:01:00,sdl,12.40
2023-07-16T12:02:00,sdl,12.46
2023-07-16T12:03:00,sdl,10.18
2023-07-16T12:04:00,sdl,10.16
2023-07-16T12:05:00,sdl,10.22
2023-07-16T12:06:00,sdl,10.18
2023-07-16T12:07:00,sdl,10.95
2023-07-16T12:08:00,sdl,14.83
2023-07-16T12:09:00,sdl,14.91
2023-07-16T12:10:00,sdl,15.52
2023-07-16T12:11:00,sdl,15.61
2023-07-16T12:12:00,sdl,15.72
2023-07-16T12:13:00,sdl,16.29
2023-07-16T12:14:00,sdl,15.72
2023-07-16T12:15:00,sdl,15.55
2023-07-16T12:16:00,sdl,15.60
2023-07-16T12:17:00,sdl,18.14
2023-07-16T12:18:00,sdl,16.10
2023-07-16T12:19:00,sdl,15.62
2023-07-16T12:20:00,sdl,17.22
2023-07-16T12:21:00,sdl,17.90
2023-07-16T12:22:00,sdl,16.78
2023-07-16T12:23:00,sdl,17.83
2023-07-16T12:24:00,sdl,18.16
2023-07-16T12:25:00,sdl,18.18
2023-07-16T12:26:00,sdl,17.52
2023-07-16T12:27:00,sdl,17.61
2023-07-16T12:28:00,sdl,17.53
2023-07-16T12:29:00,sdl,17.58
2023-07-16T12:30:00,sdl,17.63
2023-07-16T12:31:00,sdl,15.50
2023-07-16T12:32:00,sdl,15.46
2023-07-16T12:33:00,sdl,15.46
2023-07-16T12:34:00,sdl,15.75
2023-07-16T12:35:00,sdl,15.38
2023-07-16T12:36:00,sdl,15.53
2023-07-16T12:37:00,sdl,15.78
2023-07-16T12:38:00,sdl,16.18
2023-07-16T12:39:00,sdl,15.68
2023-07-16T12:40:00,sdl,15.54
2023-07-16T12:41:00,sdl,15.32
2023-07-16T12:42:00,sdl,15.57
2023-07-16T12:43:00,sdl,15.48
2023-07-16T12:44:00,sdl,15.45
2023-07-16T12:45:00,sdl,15.59
2023-07-16T12:46:00,sdl,15.47
2023-07-16T12:47:00,sdl,15.52
2023-07-16T12:48:00,sdl,15.46
2023-07-16T12:49:00,sdl,15.54
2023-07-16T12:50:00,sdl,12.74
2023-07-16T12:51:00,sdl,12.46
2023-07-16T12:52:00,sdl,12.26
2023-07-16T12:53:00,sdl,12.34
2023-07-16T12:54:00,sdl,12.62
2023-07-16T12:55:00,sdl,12.73
2023-07-16T12:56:00,sdl,12.50
2023-07-16T12:57:00,sdl,12.23
2023-07-16T12:58:00,sdl,12.25
2023-07-16T12:59:00,sdl,12.19
2023-07-16T13:00:00,sdl,12.24
2023-07-16T13:01:00,sdl,12.21
2023-07-16T13:02:00,sdl,12.60
2023-07-16T13:03:00,sdl,12.58
2023-07-16T13:04:00,sdl,12.30
2023-07-16T13:05:00,sdl,12.32
2023-07-16T13:06:00,sdl,17.19
2023-07-16T13:07:00,sdl,17.21
2023-07-16T13:08:00,sdl,17.63
2023-07-16T13:09:00,sdl,17.66
2023-07-16T13:10:00,sdl,15.50
2023-07-16T13:11:00,sdl,15.51
2023-07-16T13:12:00,sdl,15.71
2023-07-16T13:13:00,sdl,15.50
2023-07-16T13:14:00,sdl,15.96
2023-07-16T13:15:00,sdl,16.18
2023-07-16T13:16:00,sdl,16.03
2023-07-16T13:17:00,sdl,16.03
2023-07-16T13:18:00,sdl,16.39
2023-07-16T13:19:00,sdl,15.85
2023-07-16T13:20:00,sdl,16.31
2023-07-16T13:21:00,sdl,16.52
2023-07-16T13:22:00,sdl,16.58
2023-07-16T13:23:00,sdl,16.99
2023-07-16T13:24:00,sdl,17.03
2023-07-16T13:25:00,sdl,16.96
2023-07-16T13:26:00,sdl,16.77
2023-07-16T13:27:00,sdl,16.64
2023-07-16T13:28:00,sdl,17.17
2023-07-16T13:29:00,sdl,16.91
2023-07-16T13:30:00,sdl,16.32
2023-07-16T13:31:00,sdl,16.24
2023-07-16T13:32:00,sdl,16.09
2023-07-16T13:33:00,sdl,16.36
2023-07-16T13:34:00,sdl,16.57
2023-07-16T13:35:00,sdl,16.28